Other Public Products
Issued by NWS Grand Forks, ND

Home | Current Version | Previous Version | Text Only | Print | Product List | Glossary On
Versions: 1 2 3 4 5 6 7 8 9 10 11 12 13 14 15 16 17 18 19 20 21 22 23 24 25 26 27 28 29 30 31 32 33 34 35 36 37 38 39 40 41 42 43 44 45 46 47 48 49 50
000
FPUS83 KFGF 290110
OPUFGF
PRAIRIE TO PINES WEATHER ROUNDUP
NATIONAL WEATHER SERVICE EASTERN NORTH DAKOTA/GRAND FORKS ND
800 PM CDT THU AUG 28 2014

 **SATELLITE DATA USED TO AUGMENT SKY COVER AT AUTOMATED STATIONS**
 *****  WEATHER ACROSS EASTERN NORTH DAKOTA  *****

CITY           SKY/WX    TMP DP  RH WIND       PRES   REMARKS
GRAND FORKS    CLOUDY    71  65  81 S14       29.85S
GRAND FORKS AF CLOUDY    70  69  97 S12       29.86S
GRAND CITY NWS   N/A     70 N/A N/A S12         N/A
BUXTON         NOT AVBL
DEVILS LAKE    CLOUDY    72  63  73 S9        29.82S
FARGO          CLOUDY    67  64  90 SE10      29.87F
WAHPETON ARPT  CLOUDY    66  63  88 SE7       29.89F
$$

 *****  WEATHER ACROSS CENTRAL AND WESTERN NORTH DAKOTA  *****

CITY           SKY/WX    TMP DP  RH WIND       PRES   REMARKS
JAMESTOWN      CLOUDY    68  65  90 SE8       29.86S
BISMARCK       CLOUDY    71  66  84 SE8       29.85S
MINOT          PTCLDY    79  60  52 SE8       29.77S
MINOT AFB      CLEAR     78  63  58 S8        29.75F
GARRISON         N/A     76  66  71 SE6       29.81S
WILLISTON      PTCLDY    87  49  26 W8        29.76S
DICKINSON      PTCLDY    80  61  52 CALM      29.83S
HETTINGER      PTCLDY    76  58  53 SE9       29.87F
$$

 *****  OTHER OBSERVATIONS NORTHEAST NORTH DAKOTA  *****

CITY           SKY/WX    TMP DP  RH WIND       PRES   REMARKS
WALHALLA         N/A     75  70  83 S8        29.80S
LANGDON        NOT AVBL
CAVALIER       NOT AVBL
GRAFTON        MOCLDY    70  66  88 S15       29.84S
CANDO          FAIR      73  66  78 S5        29.82S
FORT TOTTEN      N/A     70  65  83 S8        29.95
ROLLA          FAIR      73  66  78 S10       29.82S
RUGBY          NOT AVBL
 ***** THE ABOVE OBSERVATIONS ARE NON NWS ARE NOT QUALITY
        CONTROLLED AND MAY MIS-REPORT RAIN FOR SNOW...
$$

 *****  OTHER OBSERVATIONS SOUTHEAST NORTH DAKOTA *****

CITY           SKY/WX    TMP DP  RH WIND       PRES   REMARKS
COOPERSTOWN    NOT AVBL
VALLEY CITY    CLOUDY    66  66 100 S10       29.88S
OAKES            N/A     64  64 100 E10       29.87S FOG
GWINNER        NOT AVBL
SHEYENNE NWR     N/A     66  65  95 SE7       29.95S
BUFFALO        NOT AVBL
WYNDMERE       NOT AVBL
 ***** THE ABOVE OBSERVATIONS ARE NON NWS ARE NOT QUALITY
       CONTROLLED AND MAY MIS-REPORT RAIN FOR SNOW...
$$

  *****  WEATHER ACROSS NORTHERN MINNESOTA  *****

CITY           SKY/WX    TMP DP  RH WIND       PRES   REMARKS
FLAG ISLAND    CLOUDY    70  63  78 S13       29.87S
WARROAD        CLOUDY    70  64  83 S5        29.89S
ROSEAU         MOCLDY    70  63  78 S8        29.88S
HALLOCK        MOCLDY    72  66  83 S15G22    29.83S
THF RVR FALLS  CLOUDY    70  63  78 S9        29.89S
HALSTAD          N/A     66  63  87 S7          N/A
FOSSTON        CLOUDY    66  59  77 S7        29.91F
BAUDETTE       CLOUDY    68  62  81 S6        29.90F
WASKISH        CLOUDY    66  63  88 CALM      29.92F
CROOKSTON      CLOUDY    70  63  78 S12       29.88F
$$
  *****  WEATHER ACROSS CENTRAL AND WEST MINNESOTA  *****

CITY           SKY/WX    TMP DP  RH WIND       PRES   REMARKS
BEMIDJI        CLOUDY    67  60  77 S8        29.93S
PARK RAPIDS    CLOUDY    66  62  87 E6        29.94S
WADENA         CLOUDY    64  63  94 SE8       29.93S
DETROIT LAKES  DRIZZLE   66  61  82 SE10      29.93F
MOORHEAD       DRIZZLE   66  66 100 SE8       29.89F
FERGUS FALLS   CLOUDY    66  63  88 SE6       29.90S
ELBOW LAKE     CLOUDY    65  63  93 SE7       29.90S
MORRIS MN      DRIZZLE   66  64  94 SE7       29.89S
STAPLES        RAIN      64  63  94 SE5       29.94S
WHEATON        CLOUDY    63  63 100 E6        29.90S
$$
  *****  WEATHER ELSEWHERE ACROSS MINNESOTA  *****

CITY           SKY/WX    TMP DP  RH WIND       PRES   REMARKS
DULUTH         CLOUDY    62  53  72 E7        30.00S
INTRNTL FALLS  CLOUDY    67  59  75 CALM      29.93F
ELY            CLOUDY    64  54  68 S8        29.99S
CLOQUET        CLOUDY    63  54  72 E5        30.00S
BRAINERD       LGT RAIN  65  62  90 SE8       29.96S
HIBBING        CLOUDY    67  58  72 SE7       29.98S
ALEXANDRIA     LGT RAIN  64  63  96 SE12      29.93F FOG
SAINT CLOUD    CLOUDY    68  64  87 E6        29.94S
MINNEAPOLIS    DRIZZLE   67  64  90 SE15      29.94F
$$

  *****  WEATHER ACROSS SOUTH DAKOTA  *****

CITY           SKY/WX    TMP DP  RH WIND       PRES   REMARKS
SIOUX FALLS    CLOUDY    72  69  90 E9        29.83F
BROOKINGS      NOT AVBL
WATERTOWN      CLOUDY    66  64  93 E8        29.87R
HURON          CLOUDY    71  68  90 NE6       29.82R
SISSETON         N/A     66  66 100 SE6       29.87S
ABERDEEN       HVY RAIN  66  66 100 E9        29.86S FOG
MITCHELL       LGT RAIN  73  71  93 W6        29.81S
PIERRE         CLOUDY    72  67  84 N9        29.84S
MOBRIDGE       CLOUDY    68  67  96 E5        29.84F
RAPID CITY     CLOUDY    73  62  68 E5        29.92S
$$

  *****  SOME WEATHER IN NEARBY STATES *****

CITY           SKY/WX    TMP DP  RH WIND       PRES   REMARKS
GLASGOW MT     CLEAR     83  50  31 NW9       29.81S
GREAT FALLS MT SUNNY     84  31  14 W18G24    29.88S
CHEYENNE WY    MOCLDY    66  46  48 CALM      30.14F
SCOTTSBLUFF NE MOCLDY    66  54  65 W7        30.02F
OMAHA NE       CLOUDY    78  71  79 S5        29.81F
DES MOINES IA  MOCLDY    76  71  85 E8        29.87F
DAVENPORT IA   CLOUDY    69  66  90 E13       29.96F
CHICAGO IL     CLOUDY    71  58  63 E8        30.05S
EAU CLAIRE WI  LGT RAIN  66  64  93 E7        30.00S
LA CROSSE WI   RAIN      67  64  90 SE9       29.96F FOG
$$

  *****  SOME NATIONAL WEATHER *****

CITY           SKY/WX    TMP DP  RH WIND       PRES   REMARKS
LA GUARDIA NY  PTCLDY    73  52  47 NW15G28   29.98R
RALEIGH NC     PTCLDY    78  72  81 CALM      29.99R
ATLANTA GA     PTCLDY    83  57  41 CALM      30.01R
NEW ORLEANS LA MOCLDY    84  71  65 SE8       29.93R
OKLAHOMA CITY  LGT RAIN  73  67  81 SW6       29.90S
ALBUQUERQUE NM PTCLDY    81  37  20 NW16      30.10S
SALT LAKE CITY MOSUNNY   83  36  18 NW3       30.09F
LOS ANGELES CA MOSUNNY   79  53  40 W17       29.87F
BOISE ID       SUNNY     90  39  16 N9        29.94F
SEATTLE WA     PTSUNNY   74  59  59 W6        30.06F
$$

*** WEATHER ACROSS MANITOBA...SASKATCHEWAN AND ONTARIO ***
                ***ONTARIO***

CITY           SKY/WX    TMP DP  RH WIND       PRES   REMARKS
GERALDTON      MOCLDY    61  48  63 SW9       30.02S
THUNDER BAY    MOCLDY    61  54  77 SE8       30.01S
SIOUX LOOKOUT  MOCLDY    68  57  68 S8        29.90F
TORONTO        PTCLDY    63  45  51 N14       30.13R
BIG TROUT LK   NOT AVBL
PICKLE LAKE    PTCLDY    68  52  56 S8        29.86F
DRYDEN         CLOUDY    68  59  73 S5        29.90F
KENORA         MOCLDY    68  61  77 S15       29.89S
$$
                *** MANITOBA***

CITY           SKY/WX    TMP DP  RH WIND       PRES   REMARKS
BRANDON        PTCLDY    77  64  65 SW8       29.75R
DAUPHIN        MOCLDY    73  66  78 W5        29.71R
ISLAND LAKE    NOT AVBL
PILOT MOUND    NOT AVBL
THE PAS        LGT RAIN  66  61  82 W6        29.74R
THOMPSON       MOCLDY    63  57  82 W3        29.68R
WINNIPEG       MOCLDY    75  66  73 S22       29.77S
LYNN LAKE      CLEAR     59  45  58 MISG      29.72R
CHURCHILL      MOCLDY    61  52  72 W7        29.56R
GILLAM         LGT RAIN  61  54  77 CALM      29.65F
$$
                ***SASKATCHEWAN***

CITY           SKY/WX    TMP DP  RH WIND       PRES   REMARKS
ESTEVAN        PTCLDY    81  63  54 W3        29.73F
KINDERSLEY     LGT RAIN  57  52  82 NW6       29.97R
LLOYDMINSTER   PTSUNNY   64  43  45 NW8       29.94S
PRINCE ALBERT  CLOUDY    63  55  77 W6        29.85R
REGINA         MOCLDY    72  55  56 N15G21    29.80R



USA.gov is the U.S. government's official web portal to all federal, state and local government web resources and services.